Time,TemperatureF,DewpointF,PressureIn,WindDirection,WindDirectionDegrees,WindSpeedMPH,WindSpeedGustMPH,Humidity,HourlyPrecipIn,Conditions,Clouds,dailyrainin,SoftwareType,DateUTC
2013-03-01 00:00:00,37.8,34.0,29.60,NE,47,2.0,2.0,86,0.00,,,0.00,Wunderground v.1.15,2013-03-01 05:00:00,
2013-03-01 00:05:00,37.8,34.0,29.60,NE,40,1.0,2.0,86,0.00,,,0.00,Wunderground v.1.15,2013-03-01 05:05:00,
2013-03-01 00:10:00,37.7,33.9,29.61,NW,314,2.0,2.0,86,0.00,,,0.01,Wunderground v.1.15,2013-03-01 05:10:00,
2013-03-01 00:20:00,37.6,34.1,29.60,ENE,66,1.0,2.0,87,0.00,,,0.01,Wunderground v.1.15,2013-03-01 05:20:00,
2013-03-01 00:30:00,37.4,33.9,29.60,NE,44,2.0,3.0,87,0.00,,,0.01,Wunderground v.1.15,2013-03-01 05:30:00,
2013-03-01 00:35:00,37.3,33.8,29.60,NNE,32,2.0,3.0,87,0.00,,,0.01,Wunderground v.1.15,2013-03-01 05:35:00,
2013-03-01 00:40:00,37.2,34.0,29.60,NE,35,2.0,2.0,88,0.00,,,0.01,Wunderground v.1.15,2013-03-01 05:40:00,
2013-03-01 00:50:00,37.0,33.8,29.60,North,1,0.0,0.0,88,0.00,,,0.01,Wunderground v.1.15,2013-03-01 05:50:00,
2013-03-01 01:00:00,36.6,33.7,29.60,West,271,0.0,0.0,89,0.00,,,0.01,Wunderground v.1.15,2013-03-01 06:00:00,
2013-03-01 01:10:00,36.1,33.5,29.60,West,265,0.0,0.0,90,0.00,,,0.01,Wunderground v.1.15,2013-03-01 06:10:00,
2013-03-01 01:20:00,35.6,33.0,29.60,West,265,0.0,0.0,90,0.00,,,0.01,Wunderground v.1.15,2013-03-01 06:20:00,
2013-03-01 01:30:00,35.2,32.8,29.60,WSW,256,0.0,0.0,91,0.00,,,0.01,Wunderground v.1.15,2013-03-01 06:30:00,
2013-03-01 01:40:00,34.9,32.5,29.60,WSW,242,0.0,0.0,91,0.00,,,0.01,Wunderground v.1.15,2013-03-01 06:40:00,
2013-03-01 01:50:00,34.6,32.2,29.60,WSW,239,0.0,0.0,91,0.00,,,0.01,Wunderground v.1.15,2013-03-01 06:50:00,
2013-03-01 02:00:00,34.1,31.7,29.60,WSW,239,0.0,0.0,91,0.00,,,0.01,Wunderground v.1.15,2013-03-01 07:00:00,
2013-03-01 02:10:00,33.7,31.6,29.60,WSW,239,0.0,2.0,92,0.00,,,0.01,Wunderground v.1.15,2013-03-01 07:10:00,
2013-03-01 02:20:00,33.6,31.5,29.60,WSW,251,0.0,0.0,92,0.00,,,0.01,Wunderground v.1.15,2013-03-01 07:20:00,
2013-03-01 02:30:00,33.5,31.4,29.60,WSW,250,0.0,0.0,92,0.00,,,0.01,Wunderground v.1.15,2013-03-01 07:30:00,
2013-03-01 02:40:00,33.5,31.7,29.60,SSW,195,0.0,1.0,93,0.00,,,0.01,Wunderground v.1.15,2013-03-01 07:40:00,
2013-03-01 02:50:00,33.7,31.9,29.60,SW,217,0.0,0.0,93,0.00,,,0.01,Wunderground v.1.15,2013-03-01 07:50:00,
2013-03-01 03:00:00,33.4,31.3,29.60,SW,234,0.0,0.0,92,0.00,,,0.01,Wunderground v.1.15,2013-03-01 08:00:00,
2013-03-01 03:10:00,33.4,31.6,29.61,SW,231,0.0,0.0,93,0.00,,,0.01,Wunderground v.1.15,2013-03-01 08:10:00,
2013-03-01 03:20:00,33.4,31.3,29.61,SW,223,0.0,0.0,92,0.00,,,0.01,Wunderground v.1.15,2013-03-01 08:20:00,
2013-03-01 03:30:00,33.4,31.6,29.61,SW,233,0.0,0.0,93,0.00,,,0.01,Wunderground v.1.15,2013-03-01 08:30:00,
2013-03-01 03:40:00,33.5,31.4,29.62,SW,217,0.0,0.0,92,0.00,,,0.01,Wunderground v.1.15,2013-03-01 08:40:00,
2013-03-01 03:50:00,33.6,31.8,29.62,SW,234,0.0,0.0,93,0.00,,,0.01,Wunderground v.1.15,2013-03-01 08:50:00,
2013-03-01 04:00:00,34.1,32.0,29.62,NE,45,0.0,2.0,92,0.00,,,0.01,Wunderground v.1.15,2013-03-01 09:00:00,
2013-03-01 04:10:00,34.7,31.8,29.62,West,261,1.0,1.0,89,0.00,,,0.01,Wunderground v.1.15,2013-03-01 09:10:00,
2013-03-01 04:20:00,34.3,31.4,29.62,WSW,256,0.0,2.0,89,0.00,,,0.01,Wunderground v.1.15,2013-03-01 09:20:00,
2013-03-01 04:30:00,33.8,31.2,29.63,WSW,255,0.0,1.0,90,0.00,,,0.01,Wunderground v.1.15,2013-03-01 09:30:00,
2013-03-01 04:40:00,33.5,31.2,29.63,WSW,244,1.0,1.0,91,0.00,,,0.01,Wunderground v.1.15,2013-03-01 09:40:00,
2013-03-01 04:50:00,33.4,31.1,29.63,WSW,239,0.0,0.0,91,0.00,,,0.01,Wunderground v.1.15,2013-03-01 09:50:00,
2013-03-01 05:00:00,33.0,30.7,29.63,WSW,238,0.0,0.0,91,0.00,,,0.01,Wunderground v.1.15,2013-03-01 10:00:00,
2013-03-01 05:10:00,32.6,30.5,29.64,WSW,237,0.0,0.0,92,0.00,,,0.01,Wunderground v.1.15,2013-03-01 10:10:00,
2013-03-01 05:20:00,32.4,30.3,29.64,WSW,237,0.0,0.0,92,0.00,,,0.01,Wunderground v.1.15,2013-03-01 10:20:00,
2013-03-01 05:30:00,32.4,30.3,29.63,WSW,247,1.0,1.0,92,0.00,,,0.01,Wunderground v.1.15,2013-03-01 10:30:00,
2013-03-01 05:40:00,32.5,30.2,29.64,NNE,16,0.0,0.0,91,0.00,,,0.01,Wunderground v.1.15,2013-03-01 10:40:00,
2013-03-01 05:50:00,32.8,30.2,29.64,WSW,237,1.0,1.0,90,0.00,,,0.01,Wunderground v.1.15,2013-03-01 10:50:00,
2013-03-01 06:00:00,32.6,30.3,29.64,WSW,247,1.0,4.0,91,0.00,,,-99.99,WeatherLink 6.0.2,2013-03-01 11:00:00,
2013-03-01 06:10:00,32.8,30.5,29.64,SW,228,0.0,2.0,91,0.00,,,0.01,Wunderground v.1.15,2013-03-01 11:10:00,
2013-03-01 06:20:00,33.1,30.2,29.64,NNW,347,0.0,0.0,89,0.00,,,0.01,Wunderground v.1.15,2013-03-01 11:20:00,
2013-03-01 06:30:00,33.2,30.0,29.64,West,261,1.0,1.0,88,0.00,,,0.01,Wunderground v.1.15,2013-03-01 11:30:00,
2013-03-01 06:40:00,33.0,30.1,29.65,NE,41,0.0,1.0,89,0.00,,,0.01,Wunderground v.1.15,2013-03-01 11:40:00,
2013-03-01 06:50:00,33.1,30.2,29.65,West,259,1.0,1.0,89,0.00,,,0.01,Wunderground v.1.15,2013-03-01 11:50:00,
2013-03-01 07:00:00,33.5,30.3,29.66,NE,34,0.0,0.0,88,0.00,,,0.01,Wunderground v.1.15,2013-03-01 12:00:00,
2013-03-01 07:10:00,33.8,30.3,29.66,WNW,296,1.0,1.0,87,0.00,,,0.01,Wunderground v.1.15,2013-03-01 12:10:00,
2013-03-01 07:20:00,34.6,31.1,29.66,NE,38,1.0,1.0,87,0.00,,,0.01,Wunderground v.1.15,2013-03-01 12:20:00,
2013-03-01 07:30:00,35.6,31.5,29.66,NNE,27,1.0,1.0,85,0.00,,,0.01,Wunderground v.1.15,2013-03-01 12:30:00,
2013-03-01 07:40:00,36.8,32.1,29.66,NE,50,1.0,1.0,83,0.00,,,0.01,Wunderground v.1.15,2013-03-01 12:40:00,
2013-03-01 07:50:00,37.8,32.5,29.67,SSE,159,1.0,1.0,81,0.00,,,0.01,Wunderground v.1.15,2013-03-01 12:50:00,
2013-03-01 08:00:00,38.6,32.6,29.67,East,92,1.0,1.0,79,0.00,,,0.01,Wunderground v.1.15,2013-03-01 13:00:00,
2013-03-01 08:10:00,39.1,32.8,29.67,SSE,161,1.0,3.0,78,0.00,,,0.01,Wunderground v.1.15,2013-03-01 13:10:00,
2013-03-01 08:20:00,40.1,32.8,29.67,NNE,20,2.0,4.0,75,0.00,,,0.01,Wunderground v.1.15,2013-03-01 13:20:00,
2013-03-01 08:30:00,40.6,33.3,29.67,SE,134,1.0,1.0,75,0.00,,,0.01,Wunderground v.1.15,2013-03-01 13:30:00,
2013-03-01 08:40:00,40.9,33.2,29.67,SW,217,2.0,2.0,74,0.00,,,0.01,Wunderground v.1.15,2013-03-01 13:40:00,
2013-03-01 08:50:00,42.4,34.0,29.68,South,180,3.0,5.0,72,0.00,,,0.01,Wunderground v.1.15,2013-03-01 13:50:00,
2013-03-01 09:00:00,42.4,33.7,29.68,WSW,241,2.0,2.0,71,0.00,,,0.01,Wunderground v.1.15,2013-03-01 14:00:00,
2013-03-01 09:10:00,42.6,32.8,29.68,North,10,3.0,4.0,68,0.00,,,0.01,Wunderground v.1.15,2013-03-01 14:10:00,
2013-03-01 09:20:00,42.7,32.9,29.68,West,259,2.0,2.0,68,0.00,,,0.01,Wunderground v.1.15,2013-03-01 14:20:00,
2013-03-01 09:30:00,43.5,34.0,29.68,SW,232,4.0,6.0,69,0.00,,,0.01,Wunderground v.1.15,2013-03-01 14:30:00,
2013-03-01 09:40:00,44.4,33.4,29.68,North,351,4.0,8.0,65,0.00,,,0.01,Wunderground v.1.15,2013-03-01 14:40:00,
2013-03-01 09:50:00,42.7,32.9,29.68,WNW,296,3.0,3.0,68,0.00,,,0.01,Wunderground v.1.15,2013-03-01 14:50:00,
2013-03-01 10:00:00,42.2,32.8,29.69,SW,234,2.0,2.0,69,0.00,,,0.02,Wunderground v.1.15,2013-03-01 15:00:00,
2013-03-01 10:10:00,42.1,31.9,29.69,WNW,296,2.0,6.0,67,0.00,,,0.02,Wunderground v.1.15,2013-03-01 15:10:00,
2013-03-01 10:20:00,42.2,31.6,29.69,North,10,3.0,5.0,66,0.00,,,0.02,Wunderground v.1.15,2013-03-01 15:20:00,
2013-03-01 10:30:00,42.1,31.9,29.69,NNW,336,6.0,6.0,67,0.00,,,0.02,Wunderground v.1.15,2013-03-01 15:30:00,
2013-03-01 10:40:00,42.2,32.8,29.69,West,279,3.0,4.0,69,0.00,,,0.02,Wunderground v.1.15,2013-03-01 15:40:00,
2013-03-01 10:50:00,42.0,31.5,29.69,North,9,5.0,9.0,66,0.00,,,0.02,Wunderground v.1.15,2013-03-01 15:50:00,
2013-03-01 11:00:00,42.1,31.6,29.69,NNW,332,4.0,6.0,66,0.00,,,0.02,Wunderground v.1.15,2013-03-01 16:00:00,
2013-03-01 11:10:00,42.3,31.4,29.69,SW,235,4.0,7.0,65,0.00,,,0.02,Wunderground v.1.15,2013-03-01 16:10:00,
2013-03-01 11:20:00,42.3,31.4,29.69,NNE,32,5.0,5.0,65,0.00,,,0.02,Wunderground v.1.15,2013-03-01 16:20:00,
2013-03-01 11:30:00,42.3,31.0,29.70,West,269,4.0,4.0,64,0.00,,,0.02,Wunderground v.1.15,2013-03-01 16:30:00,
2013-03-01 11:40:00,42.9,31.9,29.69,West,259,3.0,3.0,65,0.00,,,0.02,Wunderground v.1.15,2013-03-01 16:40:00,
2013-03-01 11:50:00,43.6,32.2,29.69,WSW,250,2.0,6.0,64,0.00,,,0.02,Wunderground v.1.15,2013-03-01 16:50:00,
2013-03-01 12:00:00,44.1,31.5,29.69,SSE,150,3.0,4.0,61,0.00,,,0.02,Wunderground v.1.15,2013-03-01 17:00:00,
2013-03-01 12:10:00,43.6,31.8,29.69,WSW,241,4.0,4.0,63,0.00,,,0.02,Wunderground v.1.15,2013-03-01 17:10:00,
2013-03-01 12:20:00,44.5,32.3,29.69,West,260,5.0,6.0,62,0.00,,,0.02,Wunderground v.1.15,2013-03-01 17:20:00,
2013-03-01 12:30:00,44.9,31.8,29.69,SSW,193,3.0,4.0,60,0.00,,,0.02,Wunderground v.1.15,2013-03-01 17:30:00,
2013-03-01 12:40:00,44.5,31.5,29.68,North,356,2.0,7.0,60,0.00,,,0.02,Wunderground v.1.15,2013-03-01 17:40:00,
2013-03-01 12:50:00,44.7,31.7,29.68,WNW,284,2.0,2.0,60,0.00,,,0.02,Wunderground v.1.15,2013-03-01 17:50:00,
2013-03-01 13:00:00,44.6,30.7,29.68,SSE,166,3.0,3.0,58,0.00,,,0.02,Wunderground v.1.15,2013-03-01 18:00:00,
2013-03-01 13:10:00,45.5,31.1,29.67,North,351,3.0,4.0,57,0.00,,,0.02,Wunderground v.1.15,2013-03-01 18:10:00,
2013-03-01 13:20:00,46.6,31.3,29.67,WSW,238,4.0,4.0,55,0.00,,,0.02,Wunderground v.1.15,2013-03-01 18:20:00,
2013-03-01 13:30:00,47.5,30.3,29.67,SSW,211,4.0,4.0,51,0.00,,,0.02,Wunderground v.1.15,2013-03-01 18:30:00,
2013-03-01 13:40:00,48.0,30.7,29.66,WNW,287,4.0,4.0,51,0.00,,,0.02,Wunderground v.1.15,2013-03-01 18:40:00,
2013-03-01 13:50:00,45.8,28.7,29.67,SSE,147,4.0,4.0,51,0.00,,,0.02,Wunderground v.1.15,2013-03-01 18:50:00,
2013-03-01 14:00:00,45.6,29.4,29.67,South,176,3.0,3.0,53,0.00,,,0.02,Wunderground v.1.15,2013-03-01 19:00:00,
2013-03-01 14:10:00,45.3,29.2,29.67,North,8,3.0,3.0,53,0.00,,,0.02,Wunderground v.1.15,2013-03-01 19:10:00,
2013-03-01 14:20:00,45.3,29.6,29.67,SW,215,3.0,8.0,54,0.00,,,0.02,Wunderground v.1.15,2013-03-01 19:20:00,
2013-03-01 14:30:00,45.3,30.1,29.67,South,190,5.0,5.0,55,0.00,,,0.02,Wunderground v.1.15,2013-03-01 19:30:00,
2013-03-01 14:40:00,44.9,30.6,29.67,South,188,4.0,4.0,57,0.00,,,0.02,Wunderground v.1.15,2013-03-01 19:40:00,
2013-03-01 14:50:00,45.2,30.9,29.67,South,179,5.0,5.0,57,0.00,,,0.02,Wunderground v.1.15,2013-03-01 19:50:00,
2013-03-01 15:00:00,45.1,29.9,29.68,SE,146,3.0,3.0,55,0.00,,,0.02,Wunderground v.1.15,2013-03-01 20:00:00,
2013-03-01 15:10:00,44.2,29.9,29.68,NW,324,2.0,2.0,57,0.00,,,0.02,Wunderground v.1.15,2013-03-01 20:10:00,
2013-03-01 15:20:00,44.3,30.0,29.68,East,96,2.0,2.0,57,0.00,,,0.02,Wunderground v.1.15,2013-03-01 20:20:00,
2013-03-01 15:30:00,43.9,30.1,29.68,SSE,154,2.0,2.0,58,0.00,,,0.02,Wunderground v.1.15,2013-03-01 20:30:00,
2013-03-01 15:40:00,43.7,29.9,29.68,ENE,78,1.0,1.0,58,0.00,,,0.02,Wunderground v.1.15,2013-03-01 20:40:00,
2013-03-01 15:50:00,43.3,29.5,29.68,NNE,22,1.0,2.0,58,0.00,,,0.02,Wunderground v.1.15,2013-03-01 20:50:00,
2013-03-01 16:00:00,43.1,29.3,29.68,NNE,30,2.0,5.0,58,0.00,,,0.02,Wunderground v.1.15,2013-03-01 21:00:00,
2013-03-01 16:10:00,42.9,29.1,29.68,SSE,148,2.0,2.0,58,0.00,,,0.02,Wunderground v.1.15,2013-03-01 21:10:00,
2013-03-01 16:20:00,42.9,28.7,29.68,NE,51,2.0,2.0,57,0.00,,,0.02,Wunderground v.1.15,2013-03-01 21:20:00,
2013-03-01 16:30:00,42.9,29.1,29.68,NE,34,1.0,1.0,58,0.00,,,0.02,Wunderground v.1.15,2013-03-01 21:30:00,
2013-03-01 16:40:00,42.9,28.7,29.69,North,5,2.0,5.0,57,0.00,,,0.02,Wunderground v.1.15,2013-03-01 21:40:00,
2013-03-01 16:50:00,42.6,28.8,29.69,North,7,2.0,2.0,58,0.00,,,0.02,Wunderground v.1.15,2013-03-01 21:50:00,
2013-03-01 17:00:00,42.7,28.9,29.69,North,351,1.0,1.0,58,0.00,,,0.02,Wunderground v.1.15,2013-03-01 22:00:00,
2013-03-01 17:10:00,42.7,28.5,29.70,West,265,1.0,1.0,57,0.00,,,0.02,Wunderground v.1.15,2013-03-01 22:10:00,
2013-03-01 17:20:00,42.6,28.4,29.70,North,8,1.0,4.0,57,0.00,,,0.02,Wunderground v.1.15,2013-03-01 22:20:00,
2013-03-01 17:30:00,42.5,28.3,29.70,NE,46,1.0,3.0,57,0.00,,,0.02,Wunderground v.1.15,2013-03-01 22:30:00,
2013-03-01 17:40:00,42.3,28.6,29.71,NNE,26,2.0,2.0,58,0.00,,,0.02,Wunderground v.1.15,2013-03-01 22:40:00,
2013-03-01 17:50:00,42.1,27.9,29.71,NNW,336,1.0,1.0,57,0.00,,,0.02,Wunderground v.1.15,2013-03-01 22:50:00,
2013-03-01 18:00:00,42.1,28.4,29.72,SW,234,1.0,1.0,58,0.00,,,0.02,Wunderground v.1.15,2013-03-01 23:00:00,
2013-03-01 18:10:00,42.2,29.3,29.72,SW,222,2.0,2.0,60,0.00,,,0.02,Wunderground v.1.15,2013-03-01 23:10:00,
2013-03-01 18:20:00,41.9,29.8,29.72,SW,228,1.0,1.0,62,0.00,,,0.02,Wunderground v.1.15,2013-03-01 23:20:00,
2013-03-01 18:30:00,41.5,29.4,29.73,NW,309,2.0,3.0,62,0.00,,,0.02,Wunderground v.1.15,2013-03-01 23:30:00,
2013-03-01 18:40:00,41.1,29.8,29.73,ENE,65,2.0,2.0,64,0.00,,,0.02,Wunderground v.1.15,2013-03-01 23:40:00,
2013-03-01 18:50:00,41.0,29.7,29.73,NW,305,1.0,1.0,64,0.00,,,0.02,Wunderground v.1.15,2013-03-01 23:50:00,
2013-03-01 19:00:00,41.1,29.8,29.74,SSW,211,1.0,3.0,64,0.00,,,0.02,Wunderground v.1.15,2013-03-02 00:00:00,
2013-03-01 19:10:00,41.2,30.7,29.74,WSW,238,2.0,2.0,66,0.00,,,0.02,Wunderground v.1.15,2013-03-02 00:10:00,
2013-03-01 19:20:00,41.0,30.9,29.74,SSW,192,1.0,2.0,67,0.00,,,0.02,Wunderground v.1.15,2013-03-02 00:20:00,
2013-03-01 19:30:00,40.9,30.8,29.74,SSW,196,2.0,2.0,67,0.00,,,0.02,Wunderground v.1.15,2013-03-02 00:30:00,
2013-03-01 19:40:00,40.7,30.2,29.74,East,84,2.0,2.0,66,0.00,,,0.02,Wunderground v.1.15,2013-03-02 00:40:00,
2013-03-01 19:50:00,40.2,30.1,29.74,SSE,148,2.0,2.0,67,0.00,,,0.02,Wunderground v.1.15,2013-03-02 00:50:00,
2013-03-01 20:00:00,40.0,30.3,29.75,East,90,2.0,7.0,68,0.00,,,-99.99,WeatherLink 6.0.2,2013-03-02 01:00:00,
2013-03-01 20:10:00,39.7,29.3,29.75,North,1,3.0,3.0,66,0.00,,,0.02,Wunderground v.1.15,2013-03-02 01:10:00,
2013-03-01 20:20:00,39.6,29.5,29.75,SSE,166,2.0,2.0,67,0.00,,,0.02,Wunderground v.1.15,2013-03-02 01:20:00,
2013-03-01 20:30:00,39.4,29.0,29.75,SE,131,2.0,2.0,66,0.00,,,0.02,Wunderground v.1.15,2013-03-02 01:30:00,
2013-03-01 20:40:00,39.3,29.3,29.75,East,101,3.0,3.0,67,0.00,,,0.02,Wunderground v.1.15,2013-03-02 01:40:00,
2013-03-01 20:50:00,39.1,28.7,29.75,NE,36,3.0,3.0,66,0.00,,,0.02,Wunderground v.1.15,2013-03-02 01:50:00,
2013-03-01 21:00:00,39.0,29.0,29.76,NNE,18,2.0,4.0,67,0.00,,,0.02,Wunderground v.1.15,2013-03-02 02:00:00,
2013-03-01 21:10:00,38.9,28.5,29.76,ENE,74,2.0,2.0,66,0.00,,,0.02,Wunderground v.1.15,2013-03-02 02:10:00,
2013-03-01 21:20:00,38.9,28.5,29.76,NE,42,3.0,3.0,66,0.00,,,0.02,Wunderground v.1.15,2013-03-02 02:20:00,
2013-03-01 21:30:00,38.9,28.9,29.76,WSW,242,3.0,3.0,67,0.00,,,0.02,Wunderground v.1.15,2013-03-02 02:30:00,
2013-03-01 21:40:00,38.8,28.0,29.76,SSW,211,3.0,3.0,65,0.00,,,0.02,Wunderground v.1.15,2013-03-02 02:40:00,
2013-03-01 21:50:00,38.7,27.9,29.76,ESE,102,1.0,1.0,65,0.00,,,0.02,Wunderground v.1.15,2013-03-02 02:50:00,
2013-03-01 22:00:00,38.4,28.0,29.76,ENE,59,2.0,2.0,66,0.00,,,0.02,Wunderground v.1.15,2013-03-02 03:00:00,
2013-03-01 22:10:00,38.2,27.8,29.77,East,80,2.0,2.0,66,0.00,,,0.02,Wunderground v.1.15,2013-03-02 03:10:00,
2013-03-01 22:20:00,38.0,27.3,29.77,NE,38,2.0,2.0,65,0.00,,,0.02,Wunderground v.1.15,2013-03-02 03:20:00,
2013-03-01 22:30:00,37.9,27.2,29.77,East,87,3.0,5.0,65,0.00,,,0.02,Wunderground v.1.15,2013-03-02 03:30:00,
2013-03-01 22:40:00,37.7,27.0,29.77,NE,53,3.0,3.0,65,0.00,,,0.02,Wunderground v.1.15,2013-03-02 03:40:00,
2013-03-01 22:50:00,37.7,27.0,29.77,South,190,2.0,2.0,65,0.00,,,0.02,Wunderground v.1.15,2013-03-02 03:50:00,
2013-03-01 23:00:00,37.5,26.8,29.77,NW,325,4.0,4.0,65,0.00,,,0.02,Wunderground v.1.15,2013-03-02 04:00:00,
2013-03-01 23:10:00,37.3,27.0,29.77,ENE,58,2.0,2.0,66,0.00,,,0.02,Wunderground v.1.15,2013-03-02 04:10:00,
2013-03-01 23:20:00,37.1,26.4,29.77,NNE,31,3.0,3.0,65,0.00,,,0.02,Wunderground v.1.15,2013-03-02 04:20:00,
2013-03-01 23:30:00,37.0,26.3,29.77,NW,326,3.0,3.0,65,0.00,,,0.02,Wunderground v.1.15,2013-03-02 04:30:00,
2013-03-01 23:40:00,37.0,26.3,29.77,East,94,3.0,3.0,65,0.00,,,0.02,Wunderground v.1.15,2013-03-02 04:40:00,
2013-03-01 23:50:00,36.5,25.8,29.77,West,266,3.0,3.0,65,0.00,,,0.02,Wunderground v.1.15,2013-03-02 04:50:00,